Weather History for Lethbridge Airport, AB

Change the Weather History Date:

Friday, August 9, 2013

  Actual Average Record
Temperature  
Mean Temperature 63 °F -  
Max Temperature 76 °F 75 °F 96 °F (2000)
Min Temperature 50 °F 48 °F 37 °F (2014)
Degree Days  
Heating Degree Days 2    
Growing Degree Days 13 (Base 50)    
Moisture  
Dew Point 54 °F    
Average Humidity 76    
Maximum Humidity 100    
Minimum Humidity 28    
Precipitation  
Precipitation 0.04 in 0.06 in - ()
Sea Level Pressure  
Sea Level Pressure 30.14 in    
Wind  
Wind Speed 6 mph ()    
Max Wind Speed 12 mph    
Max Gust Speed -    
Visibility 9.1 miles    
Events      
Averages and records for this station are not official NWS values.
T = Trace of Precipitation, MM = Missing Value Source: Averaged Metar Reports

Daily Weather History Graph

Daily Weather History Graph

Search for Another Location

Airport:

Trip Planner

Search our weather history database for the weather conditions in past years. The results will help you decide how hot, cold, wet, or windy it might be!

Date:

Astronomy

Aug. 09, 2013 Rise Set
Actual Time 6:13 AM MDT 8:58 PM MDT
Civil Twilight 5:36 AM MDT 9:35 PM MDT
Nautical Twilight 4:50 AM MDT 10:21 PM MDT
Astronomical Twilight 3:53 AM MDT 11:17 PM MDT
Moon 9:26 AM MDT (8/9) 9:44 PM MDT (8/9)
Length of Visible Light 15h 58m
Length of Day
14h 44m
Waxing Crescent, 8% of the Moon is Illuminated
Aug 9
Waxing Crescent
Aug 14
First Quarter
Aug 20
Full
Aug 28
Last Quarter
Sep 5
New

Hourly Weather History & Observations

Time (MDT) Temp. Dew Point Humidity Pressure Visibility Wind Dir Wind Speed Gust Speed Precip Events Conditions
12:00 AM 59 °F 49 °F 62% 30.06 in - WSW 3.5 mph - -  
12:00 AM 59.0 °F 53.6 °F 82% 30.22 in 9.0 mi ENE 8.1 mph - N/A   Overcast
1:00 AM 57.2 °F 53.6 °F 88% 30.22 in 9.0 mi ENE 9.2 mph - N/A   Overcast
2:00 AM 57.2 °F 53.6 °F 88% 30.21 in 9.0 mi ESE 10.4 mph - N/A   Overcast
3:00 AM 53.6 °F 51.8 °F 94% 30.22 in 9.0 mi Calm Calm - N/A   Mostly Cloudy
4:00 AM 53.6 °F 51.8 °F 94% 30.22 in 9.0 mi NNE 5.8 mph - N/A   Clear
5:00 AM 51.8 °F 50.0 °F 94% 30.22 in 9.0 mi North 10.4 mph - N/A   Mostly Cloudy
5:25 AM 51.8 °F 51.8 °F 100% 30.21 in 5.0 mi North 9.2 mph - N/A   Overcast
6:00 AM 56 °F 51 °F 76% 30.08 in - WSW 1.2 mph - -  
6:00 AM 51.8 °F 50.0 °F 94% 30.21 in 5.0 mi North 5.8 mph - N/A   Mostly Cloudy
7:00 AM 51.8 °F 51.8 °F 100% 30.20 in 3.0 mi NNE 6.9 mph - N/A   Mostly Cloudy
7:36 AM 53.6 °F 51.8 °F 94% 30.20 in 6.0 mi ENE 4.6 mph - N/A   Mostly Cloudy
8:00 AM 53.6 °F 53.6 °F 100% 30.20 in 10.0 mi East 5.8 mph - N/A   Mostly Cloudy
9:00 AM 57.2 °F 53.6 °F 88% 30.19 in 15.0 mi East 4.6 mph - N/A   Mostly Cloudy
10:00 AM 60.8 °F 55.4 °F 82% 30.18 in 20.0 mi ESE 4.6 mph - N/A   Scattered Clouds
11:00 AM 64.4 °F 55.4 °F 73% 30.17 in 25.0 mi East 3.5 mph - N/A   Mostly Cloudy
12:00 PM 69 °F 52 °F 44% 30.05 in - ESE 9.2 mph - -  
12:00 PM 66.2 °F 57.2 °F 73% 30.16 in 25.0 mi East 5.8 mph - N/A   Mostly Cloudy
1:00 PM 69.8 °F 55.4 °F 60% 30.14 in 25.0 mi ESE 9.2 mph - N/A   Mostly Cloudy
2:00 PM 69.8 °F 55.4 °F 60% 30.12 in 30.0 mi ESE 6.9 mph - N/A   Mostly Cloudy
3:00 PM 71.6 °F 57.2 °F 60% 30.11 in 30.0 mi ESE 4.6 mph - N/A   Mostly Cloudy
4:00 PM 73.4 °F 57.2 °F 57% 30.09 in 30.0 mi ESE 8.1 mph - N/A   Mostly Cloudy
5:00 PM 75.2 °F 57.2 °F 53% 30.08 in 30.0 mi ESE 5.8 mph - N/A   Scattered Clouds
6:00 PM 76 °F 49 °F 28% 30.00 in - ESE 5.8 mph - -  
6:00 PM 73.4 °F 59.0 °F 61% 30.06 in 30.0 mi ENE 11.5 mph - N/A   Scattered Clouds
7:00 PM 73.4 °F 57.2 °F 57% 30.06 in 30.0 mi East 8.1 mph - N/A   Scattered Clouds
8:00 PM 68.0 °F 57.2 °F 68% 30.07 in 30.0 mi ENE 9.2 mph - N/A   Partly Cloudy
9:00 PM 64.4 °F 57.2 °F 77% 30.08 in 30.0 mi ENE 9.2 mph - N/A   Scattered Clouds
10:00 PM 60.8 °F 55.4 °F 82% 30.08 in 30.0 mi ENE 6.9 mph - N/A   Partly Cloudy
11:00 PM 60.8 °F 55.4 °F 82% 30.08 in 9.0 mi ENE 6.9 mph - N/A   Clear